Location: Lourdes
(43.1000°N, 0.0500°W)
Time: 13:07:29
(UTC+00:00)

USA 238 - Pass Details

Date: 30 November 2020
Orbit: 996 x 1216 km, 63.4° (Epoch: 22 January)

Event Time Altitude Azimuth Distance (km) Brightness Sun altitude
Rises 19:34:37 0° 231° (SW) 3,720 7.2 -33.7°
Reaches altitude 10° 19:37:14 10° 236° (SW) 2,788 6.5 -34.2°
Enters shadow 19:43:30 54° 309° (NW) 1,254 4.1 -35.3°
